KD6VPH Weather Reports


time (UTC)temp
C
wind
direction
speed
KPH
gust
KPH
rain 1hr
cm
rain 24hr
cm
rain mn
cm
humidity
%
barometer
mb
20260507015501 13 230 1.6 1.6 0.00 0.00 0.00 76 1018.9
20260507014501 13 303 1.6 4.8 0.00 0.00 0.00 75 1018.9
20260507013501 13 194 1.6 3.2 0.00 0.00 0.00 75 1018.8
20260507012502 13 191 1.6 9.7 0.00 0.00 0.00 74 1018.9
20260507011501 13 301 1.6 8.0 0.00 0.00 0.00 74 1018.9
20260507005502 14 281 0.0 3.2 0.00 0.00 0.00 74 1019.0
20260507002502 15 353 1.6 4.8 0.00 0.00 0.00 73 1018.8
20260507001502 14 34 1.6 4.8 0.00 0.00 0.00 74 1018.8
20260506235502 14 247 1.6 8.0 0.00 0.00 0.00 75 1019.0
20260506234502 13 262 1.6 6.4 0.00 0.00 0.00 76 1019.0
20260506233502 13 173 1.6 6.4 0.00 0.00 0.00 76 1019.1
20260506232502 13 203 1.6 3.2 0.00 0.00 0.00 77 1019.1
20260506231502 13 225 1.6 6.4 0.00 0.00 0.00 76 1019.2
20260506230502 14 233 3.2 6.4 0.00 0.00 0.00 76 1019.1
20260506225502 14 254 1.6 9.7 0.00 0.00 0.00 75 1019.1
20260506224502 14 203 3.2 9.7 0.00 0.00 0.00 76 1019.1
20260506223502 13 1 3.2 6.4 0.00 0.00 0.00 76 1019.1
20260506222502 13 224 3.2 14.5 0.00 0.00 0.00 76 1019.3
20260506220502 13 215 1.6 8.0 0.00 0.00 0.00 76 1019.4
20260506215502 13 162 3.2 9.7 0.00 0.00 0.00 76 1019.3
20260506214502 13 275 3.2 8.0 0.00 0.00 0.00 76 1019.4
20260506212502 13 232 1.6 3.2 0.00 0.00 0.00 76 1019.3
20260506210502 13 240 3.2 11.3 0.00 0.00 0.00 76 1019.3
20260506204502 13 188 1.6 16.1 0.00 0.00 0.00 76 1019.4
20260506203502 13 225 1.6 12.9 0.00 0.00 0.00 76 1019.2
20260506202502 13 238 1.6 4.8 0.00 0.00 0.00 77 1019.2
20260506201502 13 154 1.6 6.4 0.00 0.00 0.00 77 1019.2
20260506200502 13 278 1.6 6.4 0.00 0.00 0.00 77 1019.2
20260506195502 13 269 3.2 6.4 0.00 0.00 0.00 77 1019.1
20260506192503 13 212 1.6 6.4 0.00 0.00 0.00 78 1019.1
20260506191503 12 211 1.6 8.0 0.00 0.00 0.00 78 1018.9
20260506185503 13 240 0.0 6.4 0.00 0.00 0.00 77 1019.0
20260506183503 12 251 1.6 8.0 0.00 0.00 0.00 77 1018.9
20260506182503 13 238 1.6 4.8 0.00 0.00 0.00 77 1018.8
20260506180503 13 267 3.2 6.4 0.00 0.00 0.00 77 1018.5
20260506174503 13 257 3.2 9.7 0.00 0.00 0.00 77 1018.6
20260506173503 13 245 3.2 8.0 0.00 0.00 0.00 76 1018.3
20260506172503 13 187 1.6 4.8 0.00 0.00 0.00 77 1018.2
20260506171503 13 182 1.6 4.8 0.00 0.00 0.00 77 1018.5
20260506170503 12 160 1.6 4.8 0.00 0.00 0.00 77 1018.5
20260506165503 12 226 1.6 6.4 0.00 0.00 0.00 78 1018.7
20260506164503 12 282 1.6 4.8 0.00 0.00 0.00 78 1018.5
20260506162503 12 282 0.0 8.0 0.00 0.00 0.00 79 1018.4
20260506161503 12 217 1.6 3.2 0.00 0.00 0.00 78 1018.5
20260506154503 12 217 1.6 6.4 0.00 0.00 0.00 79 1018.1
20260506153503 12 215 1.6 6.4 0.00 0.00 0.00 79 1018.2
20260506152503 12 259 0.0 3.2 0.00 0.00 0.00 80 1018.1
20260506151503 11 283 0.0 4.8 0.00 0.00 0.00 80 1018.2
20260506150503 11 251 1.6 9.7 0.00 0.00 0.00 80 1018.2
20260506145503 11 253 1.6 3.2 0.00 0.00 0.00 81 1018.2
20260506144503 11 232 0.0 3.2 0.00 0.00 0.00 81 1018.0
20260506143503 11 283 0.0 1.6 0.00 0.00 0.00 82 1018.0
20260506142503 11 237 1.6 1.6 0.00 0.00 0.00 83 1017.9
20260506141553 11 341 0.0 6.4 0.00 0.00 0.00 83 1017.7
20260506141503 11 341 0.0 6.4 0.00 0.00 0.00 83 1017.7
20260506135503 11 304 1.6 6.4 0.00 0.00 0.00 83 1017.8
20260506134504 11 217 1.6 4.8 0.00 0.00 0.00 83 1017.6
20260506133504 11 226 1.6 3.2 0.00 0.00 0.00 83 1017.6
20260506132504 11 225 0.0 3.2 0.00 0.00 0.00 83 1017.7
20260506130504 10 270 0.0 3.2 0.00 0.00 0.00 83 1017.5
20260506125504 10 232 1.6 6.4 0.00 0.00 0.00 84 1017.4
20260506124504 10 246 1.6 8.0 0.00 0.00 0.00 84 1017.3
20260506123504 11 219 0.0 4.8 0.00 0.00 0.00 84 1017.2
20260506122504 11 222 1.6 4.8 0.00 0.00 0.00 84 1017.2
20260506121504 11 243 1.6 4.8 0.00 0.00 0.00 83 1017.0
20260506120504 11 261 1.6 9.7 0.00 0.00 0.00 84 1016.9
20260506115504 11 210 0.0 3.2 0.00 0.00 0.00 84 1016.9
20260506114504 11 265 1.6 3.2 0.00 0.00 0.00 84 1016.8
20260506113504 11 210 1.6 4.8 0.00 0.00 0.00 84 1016.6
20260506112504 11 218 1.6 9.7 0.00 0.00 0.00 84 1016.6
20260506111552 11 206 1.6 8.0 0.00 0.00 0.00 84 1016.6
20260506111504 11 206 1.6 8.0 0.00 0.00 0.00 84 1016.6
20260506110504 11 231 0.0 6.4 0.00 0.00 0.00 84 1016.6
20260506105504 11 233 1.6 6.4 0.00 0.00 0.00 84 1016.6
20260506104504 11 226 0.0 3.2 0.00 0.00 0.00 84 1016.6
20260506102504 11 240 0.0 1.6 0.00 0.00 0.00 84 1016.5
20260506101504 11 236 0.0 3.2 0.00 0.00 0.00 84 1016.4
20260506094504 11 229 0.0 3.2 0.00 0.00 0.00 85 1016.2
20260506093504 10 236 0.0 3.2 0.00 0.00 0.00 85 1016.2
20260506091504 10 233 0.0 3.2 0.00 0.00 0.00 85 1016.0
20260506090504 10 206 0.0 6.4 0.00 0.00 0.00 86 1016.1
20260506085504 10 248 0.0 0.0 0.00 0.00 0.00 87 1016.1
20260506084504 10 244 0.0 0.0 0.00 0.00 0.00 87 1016.0
20260506083504 10 244 0.0 0.0 0.00 0.00 0.00 88 1015.9
20260506082506 10 244 0.0 3.2 0.00 0.00 0.00 88 1015.7
20260506073504 10 234 0.0 0.0 0.00 0.00 0.00 88 1015.4
20260506072505 10 234 0.0 0.0 0.00 0.00 0.00 87 1015.4
20260506070504 10 234 0.0 0.0 0.00 0.00 0.00 86 1015.2
20260506062505 10 234 0.0 0.0 0.00 0.00 0.00 85 1014.9
20260506061505 10 234 0.0 0.0 0.00 0.00 0.00 85 1014.9
20260506060506 11 234 0.0 0.0 0.00 0.00 0.00 85 1014.7
20260506050505 11 234 0.0 0.0 0.00 0.00 0.00 83 1014.7
20260506044505 12 234 0.0 0.0 0.00 0.00 0.00 82 1014.6
20260506043505 12 234 0.0 0.0 0.00 0.00 0.00 81 1014.6
20260506042505 12 234 0.0 0.0 0.00 0.00 0.00 80 1014.5
20260506041507 13 234 0.0 0.0 0.00 0.00 0.00 80 1014.3
20260506040505 13 234 0.0 0.0 0.00 0.00 0.00 79 1014.2
20260506034505 13 234 0.0 0.0 0.00 0.00 0.00 78 1013.9
20260506033505 14 234 0.0 0.0 0.00 0.00 0.00 77 1013.6
20260506032505 15 234 0.0 0.0 0.00 0.00 0.00 76 1013.7
20260506030505 15 234 0.0 3.2 0.00 0.00 0.00 75 1013.6
20260506025505 15 233 0.0 3.2 0.00 0.00 0.00 74 1013.6
20260506024505 16 231 0.0 4.8 0.00 0.00 0.00 73 1013.6
20260506023505 16 224 0.0 1.6 0.00 0.00 0.00 72 1013.6
20260506022505 16 227 0.0 3.2 0.00 0.00 0.00 72 1013.7
20260506021505 17 233 0.0 0.0 0.00 0.00 0.00 71 1013.6
20260506020505 17 265 0.0 3.2 0.00 0.00 0.00 70 1013.6